Orbital elements:
2003 FC5                                                             PHA 0.034
Epoch 2003 Dec. 27.0 TT = JDT 2453000.5                 MPC
M 122.59835              (2000.0)            P               Q
n   0.37139559     Peri.  270.46160     -0.17174627     -0.98499955
a   1.9168063      Node   189.47719     +0.93940135     -0.15864123
e   0.6090158      Incl.    5.82341     +0.29669568     -0.06788845
P   2.65           H   18.3           G   0.15           U   4
Residuals in seconds of arc
020816 644  0.0   0.7-    030331 170  0.2-  0.3-    030405 232  1.4+  0.1-
020816 644  0.5+  0.2-    030331 170  0.0   0.2-    030405 232  1.5+  0.4+
020816 644  0.0   0.3-    030331 170  0.3+  0.2-    030406 127  0.3-  0.5+
020818 644  0.8-  1.0-    030401 750  0.2+  0.1-    030406 127  0.1-  0.4+
020818 644  0.2+  0.7-    030401 750  0.2+  0.1-    030406 151  1.0-  0.2+
020818 644  0.5+  0.5+    030401 750  0.1+  0.0     030406 151  0.0   0.1+
020826 644  0.4+  0.1-    030401 750  0.0   0.1-    030406 151  0.1+  0.2+
020922 644  0.0   0.3-    030401 704  0.4+  0.1+    030406 151  0.6-  0.5+
030327 704  0.1+  0.0     030401 704  0.3+  0.0     030406 151  0.5-  0.0
030327 704  0.2+  0.0     030401 704  0.2+  0.2+    030406 151  0.1-  0.3+
030327 704  0.3-  0.2+    030401 704  0.2+  0.1-    030406 127  0.2-  0.2+
030327 704  0.2+  0.5-    030401 704  0.3+  0.1-    030406 151  0.3-  0.0
030327 704  0.3-  0.5-    030401 E14  0.1-  0.4-    030406 151  0.0   0.0
030328 J95  0.2+  0.2-    030401 E14  0.2-  0.4-    030406 151  0.2-  0.1+
030328 J95  0.2-  0.0     030401 E14  1.2-  0.4-    030406 151  0.3+  0.0
030328 J95  0.3-  0.1-    030401 E14  0.2-  0.1-    030406 127  0.1-  0.5+
030328 J95  0.3-  0.1-    030401 E14  0.5-  0.1-    030406 557  0.0   0.1+
030328 J95  0.3-  0.1+    030401 J87  0.2-  0.6-    030406 557  0.0   0.0
030328 113  0.4-  0.4+    030401 J87  0.7-  0.3-    030406 170  0.4-  0.1-
030328 113  0.1+  0.2-    030401 J87  0.9+  0.2-    030406 170  0.4-  0.6-
030328 113  0.2-  0.1+    030401 557  0.2-  0.5-    030406 170  0.5-  0.5-
030328 113  0.3-  0.2-    030401 557  0.0   0.6-    030406 557  0.2-  0.1-
030328 636  0.7-  0.6+    030401 557  0.1+  0.6-    030406 557  0.2-  0.1+
030328 636  1.2-  0.1+    030401 557  0.2-  0.3-    030406 557  0.5-  0.1-
030328 636  0.2-  0.1+    030401 176  0.2+  0.3-    030407 670  0.2-  0.1+
030328 636  0.2-  0.4+    030401 176  0.2+  0.3-    030407 670  0.2+  0.2+
030328 446  1.2+  0.1-    030401 176  0.2+  0.1-    030407 670  0.1-  0.0
030328 446  0.5+  0.9-    030401 176  0.2+  0.1-    030407 185  0.0   0.0
030328 446  1.5+  0.0     030401 176  0.1+  0.0     030407 185  0.3-  0.2-
030328 673  0.7+  0.4-    030401 560  0.2+  0.5-    030407 185  0.1-  0.1-
030328 673  0.6+  0.3-    030401 560  0.1+  0.7-    030407 185  0.0   0.1+
030328 673  0.3+  0.3-    030401 560  0.4-  0.3-    030407 185  0.2+  0.0
030328 673  0.6+  0.3-    030401 441  0.5+  0.6-    030407 469  0.2-  0.4-
030328 673  0.0   0.3-    030401 441  0.4+  0.3-    030407 469  1.0-  0.3-
030328 673  0.2+  0.1-    030401 441  0.6+  0.3-    030407 469  1.1-  0.7-
030328 673  0.3+  0.3-    030401 441  1.1+  0.4-    030407 469  0.3+  0.2-
030328 673  0.1+  0.1+    030401 441  0.6+  0.2-    030407 469  1.3-  0.4-
030328 854  0.4-  0.2+    030401 441  0.8+  0.2-    030407 469  0.1+  0.6-
030328 854  0.1+  0.1+    030401 441  0.4+  0.0     030407 469  0.3-  0.5-
030328 854  0.8+  0.3+    030402 H72  0.5-  0.6-    030407 127  0.1+  0.1+
030328 118  0.6-  0.4-    030402 H72  1.0-  1.1-    030407 127  0.4+  0.1-
030328 118  0.0   0.9-    030402 H72  0.3-  0.6-    030407 127  0.2+  0.1-
030328 118  0.4+  0.0     030402 H72  0.2-  0.8-    030407 127  0.1-  0.1+
030328 557  1.1-  0.1+    030402 H72  0.5-  0.4-    030408 557  0.1+  0.0
030328 113  0.3+  0.4-    030402 H72  0.8-  0.7-    030408 632  0.2+  0.1-
030328 113  0.3+  0.1-    030402 H72  0.3-  0.7-    030408 632  0.4-  0.0
030328 113  0.5+  0.4-    030402 H72  0.7-  0.9-    030408 552  0.3+  0.1+
030328 246  0.5-  0.2-    030402 H72  0.4-  0.6-    030408 552  0.4-  0.1+
030328 246  0.1-  0.1-    030402 H72  1.1-  0.7-    030408 204  0.2-  0.3-
030328 246  0.1+  0.1-    030402 H72  0.7-  0.5-    030408 204  0.0   0.2+
030328 246  0.2-  0.0     030402 H72  0.7-  0.5-    030408 204  0.1+  0.3+
030328 246  0.2+  0.3-    030402 H72  0.2-  0.6-    030408 552  0.1-  0.0
030328 246  0.1-  0.1-    030402 428  0.2-  0.1+    030408 632  0.6+  0.1-
030328 246  0.3+  0.0     030402 428  0.1-  0.0     030408 204  0.1+  0.2-
030328 557  0.6-  0.1+    030402 428  0.0   0.1+    030408 552  0.0   0.0
030328 557  0.3-  0.2-    030403 H72  0.1+  0.3-    030408 632  0.5-  0.1+
030328 557  0.4-  0.3-    030403 H72  0.8-  0.1-    030408 552  0.1+  0.2-
030328 557  0.1-  0.2-    030403 H72  0.2+  0.4-    030408 557  0.3+  0.3-
030328 557  0.2-  0.1-    030403 H72  0.4-  0.6-    030408 552  0.1+  0.3+
030329 557  0.2+  0.2-    030403 H72  0.1-  0.5-    030408 552  0.1-  0.2+
030329 333  0.5+  1.2+    030403 H72  0.3-  0.2-    030408 560  0.7-  0.1-
030329 333  1.6+  0.7+    030403 H72  1.2-  1.0-    030408 557  0.0   0.1-
030329 333  0.1+  0.9+    030403 842  1.0+  0.0     030408 557  0.3-  0.2-
030329 333  0.3-  0.1+    030403 842  0.6+  0.2+    030408 557  0.5-  0.1-
030329 703  0.3+  0.3-    030403 842  1.6+  0.2-    030409 557  0.4-  0.2-
030329 703  0.3+  0.4-    030403 842  0.7-  0.1-    030409 691  0.8+  0.8+
030329 703  1.7+  0.4-    030403 699  0.0   0.4-    030409 691  0.9+  0.9+
030329 703  0.4+  0.5-    030403 699  0.1-  0.3-    030409 691  0.9+  0.8+
030329 379  0.2+  0.2+    030403 699  0.0   0.3-    030409 704  0.1-  0.8+
030329 379  0.8-  0.4-    030403 333  0.1+  0.1-    030409 704  0.2-  0.4+
030329 300  0.6+  0.6+    030403 333  0.1-  0.0     030409 704  0.1+  0.7+
030329 379  0.6-  0.1+    030403 333  0.0   0.2+    030409 704  0.3+  0.3+
030329 300  0.3-  1.1+    030403 333  0.0   0.0     030409 704  0.1+  0.4+
030329 300  0.4+  0.1-    030403 699  0.1-  0.3-    030409 557  0.3-  0.5-
030329 379  0.8-  0.1+    030403 170  0.4+  0.3+    030409 557  0.1+  0.1-
030329 300  0.4+  1.6+    030403 170  0.4+  0.5+    030409 557  0.1-  0.1-
030329 300  0.4-  1.6+    030403 170  0.2+  0.6+    030410 170  0.3+  0.0
030329 300  0.6-  1.3+    030403 938  0.5+  0.7+    030410 170  0.2+  0.1+
030329 379  0.4-  0.3+    030403 938  0.6+  0.4+    030410 170  0.3+  0.1+
030329 379  0.1-  0.4+    030403 938  0.5+  0.5+    030411 691  0.4+  0.8+
030329 557  0.2-  0.3-    030403 938  0.4+  0.6+    030411 691  0.1+  1.1+
030329 557  0.3-  0.2-    030403 938  0.3+  0.5+    030411 691  0.2+  0.7+
030329 557  0.2+  0.2-    030403 938  0.9+  0.3+    030415 413  0.1+  0.1-
030329 557  0.1+  0.3-    030403 938  0.1+  1.0+    030415 413  0.0   0.0
030329 557  0.3+  0.8-    030403 938  1.7+  0.7+    030415 413  0.3+  0.1-
030329 557  0.2+  0.5-    030403 938  0.2+  0.6+    030415 198  0.5-  0.4+
030330 750  0.6+  0.2-    030403 938  0.2-  0.2-    030415 198  0.2-  0.6+
030330 750  0.7+  0.3-    030403 938  1.5-  1.5+    030415 198  0.3+  0.7+
030330 750  0.1-  0.1-    030403 938  0.4-  0.0     030417 151  0.9-  0.3+
030330 750  0.5+  0.1+    030403 938  0.1+  0.1+    030417 151  0.9+  0.4+
030330 355  0.1+  0.2-    030403 938  0.5-  0.8+    030417 151  0.1+  0.2-
030330 355  0.2+  1.0-    030403 938  0.0   0.2+    030417 151  0.7+  0.2+
030330 355  0.3-  0.3-    030403 938  0.2-  0.6+    030418 413  0.2-  0.1-
030330 355  0.3+  0.5-    030403 938  1.4+  1.8+    030418 413  0.5-  0.1-
030330 379  0.2+  0.2-    030403 938  0.4-  0.3+    030418 413  0.2-  0.2-
030330 379  0.5-  0.3-    030403 938  0.2-  0.3+    030419 118  0.6+  1.1+
030330 379  0.3-  0.5-    030403 938  0.5-  0.2+    030419 118  0.5+  0.4+
030330 379  0.7-  0.1+    030403 A50 (3.1+  0.2+)   030420 246  0.1+  0.1+
030330 428  0.3+  0.2+    030403 938  0.2-  0.7+    030420 246  0.1+  0.0
030330 428  0.3+  0.2+    030403 938  0.5+  0.0     030420 246  0.2+  0.1+
030330 379  0.2-  0.4-    030403 938  0.4+  0.2+    030420 246  0.2+  0.1+
030330 428  1.0+  0.3+    030403 938  0.5+  0.1-    030420 246  0.2+  0.0
030330 379  0.3-  0.1-    030403 938  0.3-  0.4+    030420 246  0.4-  0.1+
030330 379  0.1+  0.1-    030403 A50 (2.5-  1.4+)   030420 170  0.1+  0.3-
030330 379  0.2+  0.1-    030403 938  0.5+  0.3+    030420 170  0.1-  0.1-
030330 300  0.0   1.1+    030403 938  0.1-  0.7+    030420 170  0.1-  0.3-
030330 300  0.0   1.2+    030403 938  0.3-  0.2+    030420 170  0.2-  0.1-
030330 300  0.3-  0.3+    030403 938  0.4-  0.3+    030421 E14  0.6+  0.2+
030330 300  1.3-  1.0+    030403 938  0.6-  0.6+    030421 E14  0.3-  0.3+
030330 J95  0.2-  0.0     030403 A50  0.7+  0.2-    030421 E14  0.2-  0.1-
030330 J95  0.1-  0.1-    030404 333  0.4-  0.4+    030421 118  0.2+  0.1+
030330 J95  0.2-  0.2-    030404 333  0.8-  0.0     030421 118  0.2+  0.8-
030330 557  0.3-  0.2-    030404 333  0.1-  0.5+    030421 118  0.3+  0.8-
030330 557  0.2-  0.3-    030404 704  0.3+  0.3+    030421 118  0.1+  0.1-
030330 557  0.5-  0.2-    030404 704  0.6+  0.1+    030421 952  0.5-  0.4-
030330 557  0.4-  0.1-    030404 704  0.5+  0.4+    030421 952  0.5-  0.1-
030330 557  0.4-  0.0     030404 704  0.5+  0.2+    030421 952  0.0   0.5+
030330 557  0.2-  0.3+    030404 151  0.3+  0.2+    030421 952  0.2-  0.2+
030330 557  0.3-  0.2+    030404 151  0.2+  0.1+    030421 952  0.7+  0.4+
030330 557  0.5-  0.3+    030404 151  0.3+  0.1+    030422 703  0.7+  0.1+
030331 333  0.6-  0.2+    030404 151  0.2+  0.1+    030422 703  0.7-  0.5+
030331 333  0.3-  0.1+    030404 557  0.1-  0.2-    030422 703  0.1-  0.4+
030331 333  0.3-  0.1+    030404 151  0.1+  0.1+    030422 703  0.3-  0.5+
030331 333  0.2-  0.0     030404 151  0.2+  0.2+    030423 552  0.3-  0.3-
030331 333  0.3-  0.2+    030404 557  0.2+  0.1+    030423 552  0.4-  0.1+
030331 333  0.3-  0.1+    030404 151  1.5+  0.1-    030423 552  0.5-  0.4-
030331 333  0.3-  0.2+    030404 151  0.3+  0.2+    030423 552  0.5-  0.3-
030331 333  0.3-  0.4+    030404 151  0.2+  0.1+    030423 552  0.4+  0.1+
030331 333  0.7-  0.7+    030404 151  0.2+  0.1-    030423 552  0.2+  0.0
030331 333  0.3-  0.3+    030404 557  0.1-  0.1+    030423 552  0.2+  0.1+
030331 333  0.9-  0.8+    030404 557  0.1-  0.0     030423 552  0.2-  0.0
030331 333  0.4-  0.6+    030404 J87  0.8-  0.1-    030424 113  0.5+  0.0
030331 333  0.5-  0.5+    030404 J87  0.5-  0.1+    030424 113  1.2+  0.1+
030331 333  0.1-  0.4+    030404 J87  0.3+  0.1+    030424 113  0.3+  0.3+
030331 333  0.1+  0.1+    030404 J87  0.9+  0.1-    030424 113  0.1-  0.7+
030331 333  0.0   0.3+    030404 557  0.1+  0.0     030424 113  0.4+  0.1+
030331 118  0.5+  0.1-    030405 H72  0.5-  0.2-    030426 704  0.0   0.3+
030331 118  0.2+  0.0     030405 H72  0.2+  0.9-    030426 699  0.6-  0.4-
030331 118  0.2+  0.1-    030405 H72  0.2-  0.6-    030426 704  0.2-  0.0
030331 118  0.1-  0.1-    030405 H72  0.3-  0.5-    030426 699  0.7-  1.1-
030331 151  0.3+  0.0     030405 H72  0.5-  0.3-    030426 704  0.3+  0.4+
030331 151  0.1+  0.1-    030405 H72  0.6-  0.5-    030426 699  0.3-  0.4-
030331 151  0.1-  0.5-    030405 H72  0.3-  0.6-    030426 704  0.1+  0.8+
030331 151  0.4+  0.2-    030405 H72  0.0   0.2-    030426 699  1.3+  0.3+
030331 151  0.2+  0.0     030405 H72  0.7-  0.4-    030426 704  0.1+  0.1-
030331 151  0.4+  0.4+    030405 H72  0.3+  0.1-    030428 926  0.1-  0.8+
030331 151  0.2+  0.4-    030405 691  0.1+  0.0     030428 926  0.2+  0.4-
030331 151  0.2+  0.2-    030405 291  1.2-  0.4+    030428 170  0.0   0.6-
030331 151  0.7+  0.4-    030405 691  0.3+  0.0     030428 170  0.1+  0.5-
030331 151  0.1+  0.4-    030405 291  0.2-  0.1-    030428 170  0.1-  0.2-
030331 557  0.0   0.2+    030405 291  0.1-  0.1-    030428 170  0.1+  0.2-
030331 557  0.2-  0.2+    030405 691  0.6+  0.3+    030501 704  0.6-  0.1-
030331 557  0.1-  0.3+    030405 941  0.9+  0.2-    030501 704  0.1+  0.7-
030331 127  0.1-  0.2-    030405 941  0.8+  0.3-    030501 704  0.1+  0.3-
030331 127  0.0   0.1-    030405 941  0.8+  0.3-    030501 704  0.2-  0.4-
030331 127  0.1-  0.0     030405 941  0.9+  0.3-    030501 E14  2.0+  0.1-
030331 127  0.1-  0.0     030405 941  0.8+  0.3-    030501 E14  1.2-  0.1+
030331 127  0.0   0.1-    030405 587  0.3+  0.1-    030501 E14  0.8-  0.2-
030331 557  0.0   0.1+    030405 587  0.1+  0.4+    030530 715  0.3-  0.1-
030331 557  0.1+  0.0     030405 587  0.0   0.6-    030530 715  0.5-  0.2-
030331 170  0.3+  0.0     030405 232  1.0-  0.5+    030530 715  0.5-  0.3-

